Weather History for KGFK - February, 2014

Change the Weather History Date:

Wednesday, February 26, 2014

  Actual Average Record
Temperature  
Mean Temperature -2 °F 16 °F  
Max Temperature 13 °F 26 °F 46 °F (1958)
Min Temperature -17 °F 7 °F -20 °F (1962)
Degree Days  
Heating Degree Days 67 49  
Month to date heating degree days 1647 1387  
Since 1 July heating degree days 7739 7053  
Cooling Degree Days 0 0  
Month to date cooling degree days 0 0  
Year to date cooling degree days 0 0  
Moisture  
Dew Point -5 °F    
Average Humidity 71    
Maximum Humidity 80    
Minimum Humidity 61    
Precipitation  
Precipitation 0.02 in 0.03 in 0.71 in (2000)
Month to date precipitation 0.57 0.47  
Year to date precipitation 1.26 1.02  
Snow  
Snow T in 0.30 in - ()
Month to date snowfall 5.4 6.1  
Since 1 July snowfall 45.7 36.7  
Snow Depth 11.00 in    
Sea Level Pressure  
Sea Level Pressure 29.90 in    
Wind  
Wind Speed 21 mph (NNW)    
Max Wind Speed 36 mph    
Max Gust Speed 47 mph    
Visibility 4 miles    
Events Snow    
T = Trace of Precipitation, MM = Missing Value Source: NWS Daily Summary

Daily Weather History Graph

Daily Weather History Graph

Search for Another Location

Airport or City:

Trip Planner

Search our weather history database for the weather conditions in past years. The results will help you decide how hot, cold, wet, or windy it might be!

Date:

Astronomy

Feb. 26, 2014 Rise Set
Actual Time 7:15 AM CST 6:08 PM CST
Civil Twilight 6:43 AM CST 6:39 PM CST
Nautical Twilight 6:08 AM CST 7:15 PM CST
Astronomical Twilight 5:32 AM CST 7:51 PM CST
Moon 5:12 AM CST (2/26) 3:16 PM CST (2/26)
Length of Visible Light 11h 55m
Length of Day
10h 53m
Waning Crescent, 10% of the Moon is Illuminated
Feb 26
Waning Crescent
Mar 1
New
Mar 8
First Quarter
Mar 16
Full
Mar 23
Last Quarter

Hourly Weather History & Observations

Time (CST) Temp. Windchill Dew Point Humidity Pressure Visibility Wind Dir Wind Speed Gust Speed Precip Events Conditions
12:53 AM -9.9 °F -28.6 °F -17.0 °F 71% 30.24 in - WSW 10.4 mph - N/A   Clear
1:53 AM -6.0 °F -26.3 °F -14.1 °F 68% 30.18 in - WSW 13.8 mph - N/A   Scattered Clouds
2:53 AM -2.9 °F -24.4 °F -11.0 °F 68% 30.11 in - WSW 17.3 mph - N/A   Overcast
3:53 AM 1.0 °F -18.0 °F -8.0 °F 66% 30.03 in - WSW 15.0 mph - N/A   Overcast
4:53 AM 1.0 °F -20.9 °F -8.0 °F 66% 29.95 in - WSW 20.7 mph 25.3 mph N/A   Overcast
5:53 AM 3.9 °F -16.6 °F -6.0 °F 64% 29.88 in 10.0 mi West 19.6 mph 28.8 mph N/A   Overcast
6:53 AM 6.1 °F -15.2 °F -4.0 °F 63% 29.83 in 10.0 mi West 23.0 mph - N/A   Overcast
7:53 AM 7.0 °F -13.6 °F -2.9 °F 64% 29.76 in 10.0 mi West 21.9 mph - N/A   Overcast
8:53 AM 8.1 °F -13.0 °F -0.0 °F 70% 29.73 in 10.0 mi West 24.2 mph 33.4 mph N/A   Overcast
9:53 AM 10.9 °F -10.6 °F 1.9 °F 67% 29.72 in 6.0 mi WNW 28.8 mph 36.8 mph 0.00 in Snow Blowing Snow
10:34 AM 10.4 °F -10.7 °F 1.4 °F 67% 29.65 in 4.0 mi NW 26.5 mph 36.8 mph N/A Snow Blowing Snow
10:53 AM 10.0 °F -11.9 °F 1.9 °F 70% 29.72 in 4.0 mi NW 28.8 mph 35.7 mph N/A Snow Blowing Snow
11:53 AM 10.9 °F -9.2 °F 3.0 °F 70% 29.75 in 3.0 mi NNW 24.2 mph 32.2 mph N/A Snow Blowing Snow
12:53 PM 12.0 °F -8.1 °F 1.0 °F 61% 29.76 in 7.0 mi NNW 25.3 mph 32.2 mph N/A   Mostly Cloudy
1:53 PM 10.9 °F -10.6 °F 1.0 °F 64% 29.78 in 4.0 mi NNW 28.8 mph 36.8 mph 0.00 in Snow Light Snow
2:04 PM 8.6 °F -13.8 °F 3.2 °F 79% 29.72 in 1.0 mi North 28.8 mph 47.2 mph 0.00 in Snow Light Snow
2:06 PM 8.6 °F -13.8 °F 3.2 °F 79% 29.72 in 1.0 mi North 28.8 mph 47.2 mph 0.00 in Snow Light Snow
2:08 PM 8.6 °F -13.8 °F 3.2 °F 79% 29.72 in 0.5 mi North 28.8 mph - 0.00 in Snow Light Snow
2:25 PM 8.6 °F -13.4 °F 3.2 °F 79% 29.73 in 0.2 mi North 27.6 mph 34.5 mph 0.00 in Snow Light Snow
2:36 PM 6.8 °F -16.6 °F 3.2 °F 85% 29.74 in 0.5 mi North 29.9 mph 34.5 mph 0.00 in Snow Light Snow
2:53 PM 6.1 °F -17.9 °F 1.0 °F 80% 29.83 in 0.5 mi North 31.1 mph 38.0 mph 0.00 in Snow Light Snow
3:00 PM 6.8 °F -15.9 °F 1.4 °F 79% 29.76 in 0.5 mi North 27.6 mph 38.0 mph 0.00 in Snow Light Snow
3:41 PM 5.0 °F -17.1 °F -0.4 °F 78% 29.80 in 1.5 mi North 24.2 mph 32.2 mph 0.00 in Snow Light Snow
3:53 PM 6.1 °F -16.1 °F -2.0 °F 69% 29.88 in 1.0 mi North 25.3 mph 36.8 mph 0.00 in Snow Blowing Snow
4:07 PM 3.2 °F -21.5 °F -0.4 °F 85% 29.83 in 0.2 mi North 29.9 mph 36.8 mph 0.01 in Snow Light Snow
4:16 PM 3.2 °F -21.5 °F -2.2 °F 78% 29.84 in 0.1 mi North 29.9 mph 39.1 mph 0.01 in Snow Heavy Snow
4:32 PM 1.4 °F -22.7 °F -2.2 °F 85% 29.85 in 0.8 mi North 26.5 mph 34.5 mph 0.01 in Snow Light Snow
4:53 PM 1.9 °F -23.6 °F -2.9 °F 80% 29.94 in 1.0 mi North 31.1 mph 34.5 mph 0.01 in Snow Light Snow
5:53 PM -2.0 °F -28.2 °F -7.1 °F 79% 29.99 in 1.5 mi North 28.8 mph 34.5 mph 0.01 in Snow Light Snow
6:25 PM -4.0 °F -29.6 °F -11.2 °F 71% 29.94 in 1.5 mi North 25.3 mph - 0.00 in Snow Blowing Snow
6:53 PM -5.1 °F -28.4 °F -11.9 °F 72% 30.04 in 5.0 mi North 19.6 mph 29.9 mph 0.00 in Snow Blowing Snow
7:53 PM -7.1 °F -29.1 °F -13.0 °F 75% 30.07 in 10.0 mi North 16.1 mph - N/A   Clear
8:53 PM -9.0 °F -28.4 °F -15.0 °F 75% 30.12 in 10.0 mi NNW 11.5 mph - N/A   Clear
9:39 PM -11.2 °F -30.1 °F -16.6 °F 77% 30.05 in 10.0 mi North 10.4 mph - N/A   Scattered Clouds
9:53 PM -11.9 °F -33.0 °F -17.0 °F 78% 30.14 in 10.0 mi North 12.7 mph - N/A   Partly Cloudy
10:53 PM -14.1 °F -32.6 °F -23.1 °F 64% 30.17 in 10.0 mi NNE 9.2 mph - N/A   Clear
11:53 PM -16.1 °F -33.7 °F -26.0 °F 61% 30.19 in - North 8.1 mph - N/A   Clear